Regional Weather Roundup
Issued by NWS

Home | Current Version | Previous Version | Text Only | Print | Product List | Glossary On
Versions: 1 2 3 4 5 6 7 8 9 10 11 12 13 14 15 16 17 18 19 20 21 22 23 24 25 26 27 28 29 30 31 32 33 34 35 36 37 38 39 40 41 42 43 44 45 46 47 48 49 50
000
ASUS43 KDTX 300910
RWRMI
MICHIGAN HOURLY REGIONAL WEATHER ROUNDUP
NATIONAL WEATHER SERVICE DETROIT/PONTIAC MI
500 AM EDT SAT MAY 30 2015

NOTE: "FAIR" INDICATES FEW OR NO CLOUDS BELOW 12,000 FEET WITH NO
SIGNIFICANT WEATHER AND/OR OBSTRUCTION TO VISIBILITY.

MIZ047>049-052>055-059>063-066>070-074>076-081>083-301000-
SOUTHEAST LOWER MICHIGAN

CITY           SKY/WX    TMP DP  RH WIND       PRES   REMARKS
ADRIAN         MOCLDY    70  64  81 SW13      29.98S
ALMA           MOCLDY    68  66  96 S5        29.92R
ANN ARBOR      PTCLDY    69  63  81 SW6       29.96S
BAD AXE        MOCLDY    68  65  90 SW9       29.90S
CARO           MOCLDY    67  66  96 SW7       29.91S
DETROIT CITY   PTCLDY    71  64  78 SW12      29.96S
DETROIT        CLOUDY    72  64  76 S8        29.97R
FLINT          MOCLDY    73  65  75 SW6       29.92F
GROSSE ILE     PTCLDY    68  64  88 S8        29.96S
HILLSDALE      PTCLDY    69  67  91 SW7       29.98S
HOWELL         MOCLDY    71  64  80 S3        29.95S

CITY           SKY/WX    TMP DP  RH WIND       PRES   REMARKS
JACKSON        PTCLDY    71  64  78 SW9       29.96S
LAMBERTVILLE   PTCLDY    70  63  78 S6        29.99S
LANSING        MOCLDY    69  66  90 SW12      29.94R
LAPEER         FAIR      70  63  77 SW7       29.93S
MASON          MOCLDY    71  63  76 SW8       29.94S
MONROE         PTCLDY    70  64  83 S8        29.96S
MT. CLEMENS    PTCLDY    68  64  87 S8        29.93S
PONTIAC        PTCLDY    70  63  78 S8        29.94S
PORT HOPE        N/A     69  66  90 SW7G16    29.86S
PORT HURON     CLEAR     68  64  88 S6        29.95R
TRI CITIES     MOCLDY    70  66  87 SW9       29.91R
MIDLAND        RAIN      69  66  91 SW7       29.89R
TROY           PTCLDY    72  65  78 SW7       29.97S
SAGINAW HB     CLOUDY    68  68 100 SW7       29.90R
$$
MIZ043>046-050>051-056>058-064>065-071>073-077>080-301000-
SOUTHWEST LOWER MICHIGAN

CITY           SKY/WX    TMP DP  RH WIND       PRES   REMARKS
BATTLE CREEK   CLOUDY    70  65  84 SW12      29.96R
BENTON HARBOR  MOCLDY    69  65  86 SW10      29.94R
BIG RAPIDS     HVY RAIN  66  62  89 SW6       29.91R
COLDWATER      PTCLDY    69  64  82 SW6       29.97S
FREMONT        CLOUDY    62  62  98 W5        29.92R
HOLLAND        CLOUDY    69  63  81 SW14      29.93S
GRAND RAPIDS   PTCLDY    69  66  90 SW8       29.92R
IONIA          MOCLDY    69  66  89 SW9       29.92R
KALAMAZOO      MOCLDY    70  66  87 SW8       29.95S
LUDINGTON      DRIZZLE   56  54  92 W5        29.92R
MARSHALL       CLOUDY    72  64  78 SW6       29.95S
MOUNT PLEASANT LGT RAIN  68  65  92 SW5       29.89S
MUSKEGON       CLOUDY    57  55  93 SW5       29.92S FOG
SOUTH HAVEN    MOCLDY    70  64  81 SW8G16    29.94R
$$
MIZ016>042-301000-
NORTHERN LOWER MICHIGAN

CITY           SKY/WX    TMP DP  RH WIND       PRES   REMARKS
ALPENA         CLOUDY    65  63  93 NW6       29.86R
BEAVER ISLAND  DRIZZLE   49  49  97 W9        29.93R
BELLAIRE       LGT RAIN  57  55  95 NW3       29.92R
CADILLAC       LGT RAIN  64  62  94 NW6       29.91R
CHARLEVOIX     LGT RAIN  51  51 100 W8        29.95R
FRANKFORT      DRIZZLE   55  50  83 NE5       29.93S
GAYLORD        LGT RAIN  59  59 100 NW5       29.90S
GRAYLING       RAIN      61  60  97 W7        29.91R
HARBOR SPRINGS DRZL/FOG  49  49 100 SW3       29.91R VSB 1/2
HOUGHTON LAKE  CLOUDY    68  65  90 W10       29.90R
MANISTEE       CLOUDY    52  48  87 NW6       29.93R
OSCODA         PTCLDY    68  67  97 SW9       29.85S
PELLSTON       LGT RAIN  55  54  96 W10       29.91R
ROGERS CITY    CLOUDY    61  60  97 NW8       29.88R
TRAVERSE CITY  LGT RAIN  55  53  93 N7        29.92R
$$
MIZ007>008-015-301000-
EASTERN UPPER MICHIGAN

CITY           SKY/WX    TMP DP  RH WIND       PRES   REMARKS
KINROSS        CLOUDY    52  50  93 W12       29.88R
MACKINAC ISLAN LGT RAIN  55  55 100 W10       29.89R
NEWBERRY       LGT RAIN  47  47  99 NW9G17    29.93R
S. S. MARIE    LGT RAIN  46  45  96 W13       29.87R FOG
MUNISING         N/A     45  41  86 N17       30.00R
$$
MIZ004>006-011>014-085-301000-
CENTRAL UPPER MICHIGAN

CITY           SKY/WX    TMP DP  RH WIND       PRES   REMARKS
MANISTIQUE     LGT RAIN  47  45  93 N14G23    29.94R
ESCANABA       CLOUDY    52  46  82 N10       29.97R
MENOMINEE      CLOUDY    54  48  82 NE13G22   29.97R
SAWYER-GWINN   CLOUDY    47  45  91 N16       30.00S
$$
MIZ001>003-009>011-084-301000-
WESTERN UPPER MICHIGAN

CITY           SKY/WX    TMP DP  RH WIND       PRES   REMARKS
IRON MOUNTAIN  LGT RAIN  52  48  86 N13       29.99R
HOUGHTON       CLOUDY    47  44  90 N8        30.05R
COPPER HARBOR    N/A     44  39  82 N10       30.05R
IRONWOOD       CLOUDY    45  45 100 NW7       30.07R
$$

ABBREVIATIONS USED IN REMARKS
   TC - TEMPERATURE IN CELSIUS
  WCI - WIND CHILL INDEX
   HX - HEAT INDEX
  VSB - VISIBILITY



USA.gov is the U.S. government's official web portal to all federal, state and local government web resources and services.